This demonstration page uses our WeatherBlox Daily Observations layout. Learn more.

Left ArrowRight Arrow

44.8408, -93.29828

Hourly Observations for July 17, 2017

Temp ( °F °C ) Dew Point ( °F °C ) Humidity (%) Winds ( mph kmh ) Pressure ( in mb ) Visibility ( mi km ) Precip ( " mm )
12:53 am 00:53 Clear 72 22.2 62 16.7 71 71 SE 10 17 29.97 1015 10 16 0.00 0.00
1:53 am 01:53 Clear 71 21.7 61 16.1 71 71 SE 10 17 29.96 1015 10 16 0.00 0.00
2:53 am 02:53 Clear 69 20.6 61 16.1 76 76 SSE 6 9 29.97 1015 10 16 0.00 0.00
3:53 am 03:53 Clear 68 20 61 16.1 78 78 SE 6 9 29.97 1015 10 16 0.00 0.00
4:53 am 04:53 Clear 69 20.6 61 16.1 76 76 SSE 8 13 29.97 1015 10 16 0.00 0.00
5:53 am 05:53 Sunny 69 20.6 62 16.7 78 78 S 9 15 29.96 1015 10 16 0.00 0.00
6:53 am 06:53 Partly Cloudy 71 21.7 63 17.2 76 76 S 12 19 29.96 1015 10 16 0.00 0.00
7:53 am 07:53 Mostly Cloudy 74 23.3 65 18.3 74 74 S 8 13 29.97 1015 10 16 0.00 0.00
8:53 am 08:53 Mostly Cloudy 76 24.4 65 18.3 69 69 S 12 19 29.96 1015 10 16 0.00 0.00
9:53 am 09:53 Mostly Cloudy 78 25.6 65 18.3 64 64 S 12 19 29.96 1015 10 16 0.00 0.00
10:53 am 10:53 Mostly Sunny 82 27.8 65 18.3 56 56 S 13 20 29.94 1014 10 16 0.00 0.00
11:53 am 11:53 Sunny 84 28.9 65 18.3 53 53 S 14 22 29.92 1013 10 16 0.00 0.00
12:53 pm 12:53 Sunny 87 30.6 67 19.4 51 51 S 14 22 29.90 1013 10 16 0.00 0.00
1:53 pm 13:53 Sunny 89 31.7 68 20 50 50 S 15 24 29.90 1012 10 16 0.00 0.00
2:53 pm 14:53 Mostly Sunny 91 32.8 70 21.1 50 50 S 12 19 29.89 1012 10 16 0.00 0.00
3:53 pm 15:53 Mostly Sunny 90 32.2 71 21.7 54 54 S 15 24 29.88 1012 10 16 0.00 0.00
4:53 pm 16:53 Mostly Sunny 90 32.2 71 21.7 54 54 S 17 28 29.86 1011 10 16 0.00 0.00
5:53 pm 17:53 Partly Cloudy 89 31.7 72 22.2 57 57 S 17 28 29.85 1011 10 16 0.00 0.00
6:53 pm 18:53 Mostly Sunny 88 31.1 72 22.2 59 59 S 15 24 29.85 1011 10 16 0.00 0.00
7:53 pm 19:53 Partly Cloudy 87 30.6 72 22.2 61 61 SSE 13 20 29.85 1011 10 16 0.00 0.00
8:53 pm 20:53 Mostly Cloudy 84 28.9 72 22.2 67 67 SSE 8 13 29.88 1012 10 16 0.00 0.00
9:38 pm 21:38 Mostly Cloudy 83 28.3 70 21.1 65 65 N 28 44 29.91 1013 10 16 0.00 0.00
9:40 pm 21:40 Mostly Cloudy 81 27.2 68 20 65 65 NNE 28 44 29.91 1013 10 16 0.00 0.00
9:51 pm 21:51 Mostly Cloudy 77 25 64 18 65 65 NNE 17 28 29.91 1013 10 16 0.00 0.00
9:52 pm 21:52 Cloudy 77 25 64 17.8 64 64 NNE 18 30 29.96 1015 10 16 0.00 0.00
9:57 pm 21:57 Cloudy with Nearby Thunderstorms 76 24.4 64 17.8 67 67 NE 16 26 29.91 1013 10 16 0.00 0.00
10:21 pm 22:21 Windy with Storms Likely 72 22.2 66 18.9 82 82 NE 26 43 29.97 1015 10 16 0.00 0.03
10:53 pm 22:53 Cloudy with Thunderstorms 70 21.1 67 19.4 90 90 NW 12 19 30.01 1016 4 6 0.09 2.29
10:58 pm 22:58 Cloudy with Nearby Thunderstorms 70 21.1 67 19.4 90 90 NNE 16 26 30.00 1016 2 3 0.12 3.05
11:06 pm 23:06 Cloudy with Nearby Thunderstorms 69 20.6 67 19.4 93 93 NE 16 26 29.97 1015 2 2 0.31 7.87
11:15 pm 23:15 Cloudy with Thunderstorms 69 20.6 67 19.4 93 93 NNE 14 22 30.00 1016 4 6 0.34 8.64
11:33 pm 23:33 Cloudy with Thunderstorms 69 20.6 67 19.4 93 93 N 6 9 30.00 1016 5 8 0.35 8.89
11:53 pm 23:53 Cloudy with Strong Thunderstorms 69 20.6 67 19.4 93 93 SE 7 11 30.01 1016 4 6 0.48 12.19

Powered by AerisWeather